Regional Weather Roundup
Issued by NWS Newport/Morehead, NC

Current Version | Previous Version | Graphics & Text | Print | Product List | Glossary Off
Versions: 1 2 3 4 5 6 7 8 9 10 11 12 13 14 15 16 17 18 19 20 21 22 23 24 25 26 27 28 29 30 31 32 33 34 35 36 37 38 39 40 41 42 43 44 45 46 47 48 49 50
760 ASUS42 KMHX 241213 RWRMHX WEATHER ROUNDUP FOR EASTERN NORTH CAROLINA NATIONAL WEATHER SERVICE NEWPORT/MOREHEAD CITY NC 800 AM EDT TUE MAY 24 2016 NOTE: "FAIR" INDICATES FEW OR NO CLOUDS BELOW 12,000 FEET WITH NO SIGNIFICANT WEATHER AND/OR OBSTRUCTIONS TO VISIBILITY NCZ015>017-031-032-045>047-102-103-241300- NORTH COAST CITY SKY/WX TMP DP RH WIND PRES REMARKS EDENTON SUNNY N/A N/A N/A W7 30.07R ELIZABETH CITY SUNNY 61 54 77 SW8 30.05R KITTY HAWK SUNNY 63 57 80 W7 30.04R MANTEO SUNNY 60 56 89 W10 30.06R $$ NCZ045>047-081-094-103-104-241300- CENTRAL COAST CITY SKY/WX TMP DP RH WIND PRES REMARKS FRISCO SUNNY 66 55 67 W10 30.07R $$ NCZ095-097-098-100-101-241300- SOUTHERN COAST CITY SKY/WX TMP DP RH WIND PRES REMARKS BEAUFORT SUNNY 63 52 67 W5 30.09R CEDAR ISLAND NOT AVBL JACKSONVILLE MOSUNNY 60 54 80 W7 30.10R PINEY ISLAND NOT AVBL WILMINGTON SUNNY 61 55 81 W7 30.11R $$ NCZ011>013-027>030-043-044-078>080-089-090>093-098-241300- COASTAL PLAIN CITY SKY/WX TMP DP RH WIND PRES REMARKS AHOSKIE SUNNY 56 53 87 CALM 30.07R CLINTON SUNNY 58 55 91 CALM 30.11R ELIZABETHTOWN SUNNY 59 53 79 CALM 30.11R GOLDSBORO SUNNY 58 58 99 SW3 30.08R GREENVILLE SUNNY 59 54 82 W3 30.09R HAVELOCK SUNNY 61 53 75 W8 30.10R KENANSVILLE SUNNY 57 53 86 CALM 30.11R KINSTON SUNNY 61 54 77 W5 30.10R NEW BERN SUNNY 60 53 77 W6 30.10R RICHLANDS SUNNY 60 55 83 W3 30.11R ROCKY MOUNT SUNNY 60 54 80 SW6 30.08R WASHINGTON SUNNY 59 53 80 W5 30.08R WHITEVILLE SUNNY 59 53 82 CALM 30.11R $$ AMZ130-135-150-152-154-156-158-170-250-252-270-ANZ085-086-088-633-658-670-241300- MARINE OBSERVATIONS STATION/POSITION TIME TEMP WIND PRES WAVE SWELL AIR SEA DIR/SP/G HT/PER HT/PER (UTC) (F) (DEG/KT/KT) (MB) (FT/S) (FT/S) CHESAPEAKE LIGHT 1100 61 270/ 11/ 12 1016.4 64 E VA BEACH 1150 58 56 250/ 8/ 10 1016.0 4/ 9 5/ 9 DUCK 1100 60 62 250/ 8/ 10 1016.1 2 E DUCK 1111 62 N/A 3/ 9 2/11 OREGON INLET 1100 60 64 260/ 7/ 11 1016.9 13E OREGON INLT 1200 60 N/A 4/11 5/11 HATTERAS CG 1100 64 67 270/ 14/ 18 1017.2 DIAMOND BUOY 1150 65 67 290/ 14/ 16 1018.3 5/ 9 3/ 9 CAPE LOOKOUT 1200 67 290/ 9/ 11 1018.7 BEAUFORT LAB 1100 60 67 300/ 6/ 7 1017.4 30 SE NEW RVR IN 1155 73 N/A 2/ 8 27 SE WRIGHTSVLE 1108 67 72 330/ 8/ 12 1018.7 5 SE WRIGHTSVLE 1108 64 71 310/ 6/ 8 1019.3 225 S CAPE HAT 1150 74 77 270/ 12/ 16 1018.1 4/ 6 3/ 6 41 SE CHARLESTON 1150 71 75 20/ 4/ 6 1019.7 2/ 8 2/ 8 $$

USA.gov is the U.S. government's official web portal to all federal, state and local government web resources and services.